TITAN 3C TRANSTAGE DEB, 2799

Orbit data source: Space-Track

TITAN 3C TRANSTAGE DEB, 2799 is space debris in LEO originally from a launch on Fri, 15 Oct 1965 UTC launched from the Air Force Eastern Test Range (AFETR). Debris objects in space refer to the collection of defunct objects orbiting the Earth. Examples of debris include non-operational satellites, rocket bodies, and fragments generated from explosions, collisions, or faulty payload assembly.

Loading next visibility...
Identifier
2799, 1965-082KX
Orbit
LEO
Country
Flag of USUS
Related business
Manufacturer
Unknown
Mission
Spacecraft
Bus & Motor
Unknown
Mass
Unknown
Launch date (UTC)
1965-10-15 (60 years ago)
Launch vehicle
Unknown
Launch site
Air Force Eastern Test Range (AFETR)
Object type
Payload
Rocket body
Debris
Shape & HBR
Unknown
Radar Cross Section
Small (<0.1 m²)

Expand to show TLE details & history
Last TLE update: 1 day ago

TLE from 1 day ago
0 TITAN 3C TRANSTAGE DEB
1 02799U 65082KX  25241.86463750  .00001659  00000-0  24435-3 0  9993
2 02799  32.0559 299.6999 0033757 115.9452  52.1859 14.73092009113143
Epoch: 2025-08-29T20:45Z
TLE epoch observation values (Epoch: 2025-08-29T20:45:04.68Z)
Latitude
6.10793°
Longitude
-179.66183°
Altitude
634.771 km
Speed
7.551 km/s
True Right ascension
07h 19m 39s
True Declination
6° 04' 16"
Sunlit
Object was in daylight at epoch
Visualization orbit readout
Latitude
Unknown
Longitude
Unknown
Altitude
Unknown
Speed
Unknown
Apparent Right ascension
Unknown
Apparent Declination
Unknown
Sunlit
N/A
Visualization observer readout
Local Sidereal Time
18:31:23
Azimuth
Unknown
Elevation
Unknown
Doppler factor
Unknown
Orbital elements
Apogee altitude
678.579 km
Perigee altitude
631.097 km
Semi-major axis
7,032.975 km
Eccentricity
0.00338
Inclination
32.0559°
RAAN
299.6999°
Arg. of periapsis
115.9452°
True anomaly
52.49229°
Mean anomaly
52.1859°
Eccentric anomaly
52.33901°
Mean motion
3.67989 °/min
Orbital period
97.83 mins
BSTAR
0.00024435
Loading maneuver chart data...
Computing Atmospheric mass density...

Documentation

Showing up to 5 results
|